Location: Ahausen
(50.4985°N, 8.2722°E)
Time: 11:23:32
(UTC+00:00)

NOSS 8 (F) - Pass Details

Date: 18 September 2020
Orbit: 385 x 1787 km, 63.3° (Epoch: 25 October)

Event Time Altitude Azimuth Distance (km) Brightness Sun altitude
Rises 18:05:49 0° 213° (SSW) 2,468 8.5 -6.0°
Reaches altitude 10° 18:08:02 10° 210° (SSW) 1,502 7.3 -6.3°
Maximum altitude 18:11:10 58° 131° (SE) 461 4.2 -6.8°
Drops below altitude 10° 18:14:08 10° 50° (NE) 1,425 6.6 -7.3°
Sets 18:16:11 0° 46° (NE) 2,323 7.7 -7.6°
